Retour au catalogue

QAEM 100 R/B

ActifVLEO
NORAD 61071·ROCKET BODY·🇮🇷 Iran

Lancé Sep 14, 2024 depuis Shahroud Space Center

Loading…

Prochains Passages (prochaines 24 heures)

TLE

FraisSource: Space-Track

Époque: Sep 14, 2026, 13:54 UTC

1 61071U 24165A   26257.57950410  .00002054  00000-0  11200-3 0  9994
2 61071  64.0711  95.5998 0074197 298.4871  60.8787 15.15464277110402

Suivez QAEM 100 R/B en temps réel avec AllMySat

Download on the App Store